Weather History for Novato, CA

Change the Weather History Date:

Monday, November 12, 2012

  Actual Average (KAPC) Record (KAPC)
Temperature  
Mean Temperature 46 °F 52 °F  
Max Temperature 60 °F 65 °F 76 °F (1999)
Min Temperature 33 °F 39 °F 22 °F (2000)
Degree Days  
Heating Degree Days 18    
Month to date heating degree days  
Since 1 July heating degree days  
Cooling Degree Days 0    
Month to date cooling degree days  
Year to date cooling degree days  
Moisture  
Dew Point 37 °F    
Average Humidity 77    
Maximum Humidity 100    
Minimum Humidity 36    
Precipitation  
Precipitation 0.00 in - 1.25 in (2001)
Month to date precipitation  
Year to date precipitation  
Since 1 July precipitation  
Sea Level Pressure  
Sea Level Pressure 30.35 in    
Wind  
Wind Speed 1 mph (SSE)    
Max Wind Speed 7 mph    
Max Gust Speed -    
Visibility 10 miles    
Events      
T = Trace of Precipitation, MM = Missing Value Source: NWS Daily Summary

Daily Weather History Graph

Daily Weather History Graph

Search for Another Location

Airport:

Trip Planner

Search our weather history database for the weather conditions in past years. The results will help you decide how hot, cold, wet, or windy it might be!

Date:

Astronomy

Nov. 12, 2012 Rise Set
Actual Time 6:48 AM PST 4:59 PM PST
Civil Twilight 6:20 AM PST 5:27 PM PST
Nautical Twilight 5:48 AM PST 5:59 PM PST
Astronomical Twilight 5:17 AM PST 6:30 PM PST
Moon 5:21 AM PST (11/12) 4:08 PM PST (11/12)
Length of Visible Light 11h 07m
Length of Day
10h 11m
Waning Crescent, 2% of the Moon is Illuminated
Nov 12
Waning Crescent
Nov 13
New
Nov 20
First Quarter
Nov 28
Full
Dec 6
Last Quarter

Hourly Weather History & Observations

Time (PST) Temp. Windchill Dew Point Humidity Pressure Visibility Wind Dir Wind Speed Gust Speed Precip Events Conditions
12:15 AM 37.4 °F - 37.4 °F 100% 30.40 in 10.0 mi Calm Calm - N/A   Clear
12:35 AM 37.4 °F - 37.4 °F 100% 30.40 in 10.0 mi Calm Calm - N/A   Clear
12:55 AM 33.8 °F - 33.8 °F 100% 30.40 in 10.0 mi Calm Calm - N/A   Clear
1:15 AM 37.4 °F - 37.4 °F 100% 30.39 in 10.0 mi Calm Calm - N/A   Clear
1:35 AM 35.6 °F - 35.6 °F 100% 30.39 in 10.0 mi Calm Calm - N/A   Clear
1:55 AM 37.4 °F - 37.4 °F 100% 30.39 in 10.0 mi Calm Calm - N/A   Clear
2:15 AM 37.4 °F - 37.4 °F 100% 30.39 in 10.0 mi Calm Calm - N/A   Clear
2:35 AM 37.4 °F - 37.4 °F 100% 30.39 in 10.0 mi Calm Calm - N/A   Clear
2:55 AM 35.6 °F - 35.6 °F 100% 30.40 in 9.0 mi Calm Calm - N/A   Clear
3:15 AM 35.6 °F - 35.6 °F 100% 30.40 in 10.0 mi Calm Calm - N/A   Clear
3:35 AM 35.6 °F - 35.6 °F 100% 30.40 in 10.0 mi Calm Calm - N/A   Clear
3:55 AM 37.4 °F - 37.4 °F 100% 30.40 in 10.0 mi Calm Calm - N/A   Clear
4:15 AM 37.4 °F - 37.4 °F 100% 30.39 in 10.0 mi Calm Calm - N/A   Clear
4:55 AM 37.4 °F - 37.4 °F 100% 30.40 in 10.0 mi Calm Calm - N/A   Clear
5:15 AM 37.4 °F - 37.4 °F 100% 30.39 in 10.0 mi Calm Calm - N/A   Clear
5:35 AM 35.6 °F - 35.6 °F 100% 30.39 in 10.0 mi Calm Calm - N/A   Clear
5:55 AM 37.4 °F - 37.4 °F 100% 30.39 in 10.0 mi Calm Calm - N/A   Clear
6:15 AM 35.6 °F 32.8 °F 35.6 °F 100% 30.39 in 10.0 mi South 3.5 mph - N/A   Clear
6:35 AM 35.6 °F 31.7 °F 35.6 °F 100% 30.39 in 10.0 mi South 4.6 mph - N/A   Clear
6:55 AM 35.6 °F - 35.6 °F 100% 30.40 in 10.0 mi Calm Calm - N/A   Clear
7:15 AM 35.6 °F - 35.6 °F 100% 30.40 in 10.0 mi Calm Calm - N/A   Clear
7:35 AM 33.8 °F - 33.8 °F 100% 30.40 in 3.0 mi Calm Calm - N/A   Clear
7:55 AM 39.2 °F - 39.2 °F 100% 30.40 in 10.0 mi Calm Calm - N/A   Clear
8:15 AM 39.2 °F - 39.2 °F 100% 30.40 in 10.0 mi Calm Calm - N/A   Clear
8:35 AM 41.0 °F - 41.0 °F 100% 30.40 in 10.0 mi Calm Calm - N/A   Clear
8:55 AM 44.6 °F - 44.6 °F 100% 30.40 in 10.0 mi Calm Calm - N/A   Clear
9:15 AM 46.4 °F - 41.0 °F 81% 30.40 in 10.0 mi Calm Calm - N/A   Clear
9:35 AM 48.2 °F - 41.0 °F 76% 30.40 in 10.0 mi SSW 3.5 mph - N/A   Clear
9:55 AM 50.0 °F - 39.2 °F 66% 30.40 in 10.0 mi Calm Calm - N/A   Clear
10:15 AM 51.8 °F - 39.2 °F 62% 30.40 in 10.0 mi Calm Calm - N/A   Clear
10:35 AM 53.6 °F - 39.2 °F 58% 30.40 in 10.0 mi SE 3.5 mph - N/A   Clear
10:55 AM 55.4 °F - 39.2 °F 54% 30.39 in 10.0 mi SE 3.5 mph - N/A   Clear
11:15 AM 55.4 °F - 35.6 °F 47% 30.38 in 10.0 mi SE 4.6 mph - N/A   Clear
11:35 AM 55.4 °F - 33.8 °F 44% 30.37 in 10.0 mi SE 3.5 mph - N/A   Clear
11:55 AM 57.2 °F - 35.6 °F 44% 30.37 in 10.0 mi SE 3.5 mph - N/A   Clear
12:15 PM 57.2 °F - 33.8 °F 41% 30.35 in 10.0 mi SSE 3.5 mph - N/A   Clear
12:35 PM 59.0 °F - 35.6 °F 42% 30.34 in 10.0 mi South 3.5 mph - N/A   Clear
12:55 PM 59.0 °F - 33.8 °F 39% 30.34 in 10.0 mi SE 4.6 mph - N/A   Clear
1:15 PM 59.0 °F - 33.8 °F 39% 30.33 in 10.0 mi SSE 3.5 mph - N/A   Clear
1:35 PM 59.0 °F - 33.8 °F 39% 30.32 in 10.0 mi SSE 3.5 mph - N/A   Clear
1:55 PM 60.8 °F - 33.8 °F 36% 30.31 in 10.0 mi SSE 3.5 mph - N/A   Clear
2:15 PM 60.8 °F - 33.8 °F 36% 30.31 in 10.0 mi ESE 3.5 mph - N/A   Clear
2:35 PM 60.8 °F - 35.6 °F 39% 30.31 in 10.0 mi SE 3.5 mph - N/A   Clear
2:55 PM 60.8 °F - 33.8 °F 36% 30.30 in 10.0 mi SE 4.6 mph - N/A   Clear
3:15 PM 60.8 °F - 35.6 °F 39% 30.30 in 10.0 mi Calm Calm - N/A   Clear
3:35 PM 60.8 °F - 35.6 °F 39% 30.30 in 10.0 mi Calm Calm - N/A   Clear
3:55 PM 60.8 °F - 35.6 °F 39% 30.29 in 10.0 mi Calm Calm - N/A   Clear
4:15 PM 59.0 °F - 33.8 °F 39% 30.29 in 10.0 mi Calm Calm - N/A   Clear
4:35 PM 57.2 °F - 37.4 °F 48% 30.28 in 10.0 mi Calm Calm - N/A   Clear
4:55 PM 53.6 °F - 37.4 °F 54% 30.28 in 10.0 mi Calm Calm - N/A   Clear
5:15 PM 53.6 °F - 37.4 °F 54% 30.28 in 10.0 mi Calm Calm - N/A   Clear
5:35 PM 50.0 °F - 39.2 °F 66% 30.28 in 10.0 mi SSW 3.5 mph - N/A   Clear
5:55 PM 51.8 °F - 39.2 °F 62% 30.28 in 10.0 mi Calm Calm - N/A   Clear
6:15 PM 50.0 °F - 39.2 °F 66% 30.28 in 10.0 mi Calm Calm - N/A   Clear
6:35 PM 48.2 °F - 39.2 °F 71% 30.28 in 10.0 mi Calm Calm - N/A   Clear
6:55 PM 46.4 °F - 39.2 °F 76% 30.29 in 10.0 mi Calm Calm - N/A   Clear
7:15 PM 46.4 °F - 39.2 °F 76% 30.29 in 10.0 mi Calm Calm - N/A   Clear
7:35 PM 46.4 °F 44.3 °F 41.0 °F 81% 30.30 in 10.0 mi SSW 4.6 mph - N/A   Clear
7:55 PM 44.6 °F - 39.2 °F 81% 30.30 in 10.0 mi Calm Calm - N/A   Clear
8:15 PM 42.8 °F - 39.2 °F 87% 30.30 in 10.0 mi Calm Calm - N/A   Clear
8:35 PM 41.0 °F - 39.2 °F 93% 30.30 in 10.0 mi Calm Calm - N/A   Clear
8:55 PM 44.6 °F - 41.0 °F 87% 30.30 in 10.0 mi Calm Calm - N/A   Clear
9:15 PM 44.6 °F - 39.2 °F 81% 30.30 in 10.0 mi Calm Calm - N/A   Clear
9:35 PM 42.8 °F 38.6 °F 41.0 °F 93% 30.30 in 10.0 mi South 6.9 mph - N/A   Clear
9:55 PM 44.6 °F 43.1 °F 41.0 °F 87% 30.30 in 10.0 mi South 3.5 mph - N/A   Clear
10:15 PM 41.0 °F - 39.2 °F 93% 30.30 in 10.0 mi Calm Calm - N/A   Clear
10:35 PM 41.0 °F 39.0 °F 41.0 °F 100% 30.30 in 10.0 mi South 3.5 mph - N/A   Clear
10:55 PM 41.0 °F - 39.2 °F 93% 30.31 in 10.0 mi Calm Calm - N/A   Clear
11:35 PM 39.2 °F - 39.2 °F 100% 30.30 in 10.0 mi Calm Calm - N/A   Clear
11:55 PM 39.2 °F - 39.2 °F 100% 30.29 in 10.0 mi Calm Calm - N/A   Clear